Year,Month,Day,Hour,Minute,Value (Times are PST for temperature in C)
2016,06,21,00,00,14.20
2016,06,21,00,01,14.20
2016,06,21,00,02,14.20
2016,06,21,00,03,14.20
2016,06,21,00,04,14.10
2016,06,21,00,05,14.10
2016,06,21,00,06,14.10
2016,06,21,00,07,14.10
2016,06,21,00,08,14.20
2016,06,21,00,09,14.20
2016,06,21,00,10,14.20
2016,06,21,00,11,14.20
2016,06,21,00,12,14.20
2016,06,21,00,13,14.20
2016,06,21,00,14,14.20
2016,06,21,00,15,14.20
2016,06,21,00,16,14.20
2016,06,21,00,17,14.10
2016,06,21,00,18,14.10
2016,06,21,00,19,14.10
2016,06,21,00,20,14.10
2016,06,21,00,21,14.10
2016,06,21,00,22,14.00
2016,06,21,00,23,14.00
2016,06,21,00,24,13.90
2016,06,21,00,25,13.90
2016,06,21,00,26,13.90
2016,06,21,00,27,13.90
2016,06,21,00,28,14.00
2016,06,21,00,29,14.00
2016,06,21,00,30,14.00
2016,06,21,00,31,14.00
2016,06,21,00,32,14.00
2016,06,21,00,33,14.00
2016,06,21,00,34,14.00
2016,06,21,00,35,13.90
2016,06,21,00,36,13.90
2016,06,21,00,37,13.90
2016,06,21,00,38,13.90
2016,06,21,00,39,13.80
2016,06,21,00,40,13.80
2016,06,21,00,41,13.80
2016,06,21,00,42,13.80
2016,06,21,00,43,13.70
2016,06,21,00,44,13.70
2016,06,21,00,45,13.70
2016,06,21,00,46,13.70
2016,06,21,00,47,13.60
2016,06,21,00,48,13.60
2016,06,21,00,49,13.60
2016,06,21,00,50,13.60
2016,06,21,00,51,13.50
2016,06,21,00,52,13.50
2016,06,21,00,53,13.50
2016,06,21,00,54,13.40
2016,06,21,00,55,13.40
2016,06,21,00,56,13.40
2016,06,21,00,57,13.40
2016,06,21,00,58,13.40
2016,06,21,00,59,13.30
2016,06,21,01,00,13.30
2016,06,21,01,01,13.30
2016,06,21,01,02,13.30
2016,06,21,01,03,13.30
2016,06,21,01,04,13.30
2016,06,21,01,05,13.30
2016,06,21,01,06,13.40
2016,06,21,01,07,13.40
2016,06,21,01,08,13.40
2016,06,21,01,09,13.50
2016,06,21,01,10,13.50
2016,06,21,01,11,13.50
2016,06,21,01,12,13.50
2016,06,21,01,13,13.50
2016,06,21,01,14,13.40
2016,06,21,01,15,13.40
2016,06,21,01,16,13.40
2016,06,21,01,17,13.30
2016,06,21,01,18,13.30
2016,06,21,01,19,13.30
2016,06,21,01,20,13.20
2016,06,21,01,21,13.20
2016,06,21,01,22,13.20
2016,06,21,01,23,13.20
2016,06,21,01,24,13.10
2016,06,21,01,25,13.10
2016,06,21,01,26,13.10
2016,06,21,01,27,13.10
2016,06,21,01,28,13.10
2016,06,21,01,29,13.00
2016,06,21,01,30,13.00
2016,06,21,01,31,13.00
2016,06,21,01,32,12.90
2016,06,21,01,33,12.90
2016,06,21,01,34,12.90
2016,06,21,01,35,12.90
2016,06,21,01,36,12.80
2016,06,21,01,37,12.80
2016,06,21,01,38,12.80
2016,06,21,01,39,12.80
2016,06,21,01,40,12.80
2016,06,21,01,41,12.70
2016,06,21,01,42,12.70
2016,06,21,01,43,12.70
2016,06,21,01,44,12.70
2016,06,21,01,45,12.60
2016,06,21,01,46,12.60
2016,06,21,01,47,12.60
2016,06,21,01,48,12.60
2016,06,21,01,49,12.60
2016,06,21,01,50,12.60
2016,06,21,01,51,12.60
2016,06,21,01,52,12.60
2016,06,21,01,53,12.60
2016,06,21,01,54,12.60
2016,06,21,01,55,12.60
2016,06,21,01,56,12.60
2016,06,21,01,57,12.60
2016,06,21,01,58,12.60
2016,06,21,01,59,12.60
2016,06,21,02,00,12.60
2016,06,21,02,01,12.70
2016,06,21,02,02,12.70
2016,06,21,02,03,12.70
2016,06,21,02,04,12.70
2016,06,21,02,05,12.70
2016,06,21,02,06,12.70
2016,06,21,02,07,12.70
2016,06,21,02,08,12.70
2016,06,21,02,09,12.60
2016,06,21,02,10,12.60
2016,06,21,02,11,12.60
2016,06,21,02,12,12.60
2016,06,21,02,13,12.60
2016,06,21,02,14,12.60
2016,06,21,02,15,12.60
2016,06,21,02,16,12.60
2016,06,21,02,17,12.60
2016,06,21,02,18,12.50
2016,06,21,02,19,12.50
2016,06,21,02,20,12.50
2016,06,21,02,21,12.50
2016,06,21,02,22,12.50
2016,06,21,02,23,12.50
2016,06,21,02,24,12.50
2016,06,21,02,25,12.40
2016,06,21,02,26,12.40
2016,06,21,02,27,12.40
2016,06,21,02,28,12.40
2016,06,21,02,29,12.40
2016,06,21,02,30,12.40
2016,06,21,02,31,12.40
2016,06,21,02,32,12.40
2016,06,21,02,33,12.40
2016,06,21,02,34,12.30
2016,06,21,02,35,12.30
2016,06,21,02,36,12.30
2016,06,21,02,37,12.30
2016,06,21,02,38,12.30
2016,06,21,02,39,12.30
2016,06,21,02,40,12.30
2016,06,21,02,41,12.30
2016,06,21,02,42,12.30
2016,06,21,02,43,12.30
2016,06,21,02,44,12.30
2016,06,21,02,45,12.30
2016,06,21,02,46,12.30
2016,06,21,02,47,12.30
2016,06,21,02,48,12.30
2016,06,21,02,49,12.30
2016,06,21,02,50,12.20
2016,06,21,02,51,12.20
2016,06,21,02,52,12.20
2016,06,21,02,53,12.20
2016,06,21,02,54,12.20
2016,06,21,02,55,12.20
2016,06,21,02,56,12.20
2016,06,21,02,57,12.20
2016,06,21,02,58,12.20
2016,06,21,02,59,12.10
2016,06,21,03,00,12.10
2016,06,21,03,01,12.10
2016,06,21,03,02,12.10
2016,06,21,03,03,12.10
2016,06,21,03,04,12.10
2016,06,21,03,05,12.10
2016,06,21,03,06,12.10
2016,06,21,03,07,12.10
2016,06,21,03,08,12.10
2016,06,21,03,09,12.10
2016,06,21,03,10,12.10
2016,06,21,03,11,12.10
2016,06,21,03,12,12.10
2016,06,21,03,13,12.00
2016,06,21,03,14,12.00
2016,06,21,03,15,12.00
2016,06,21,03,16,12.00
2016,06,21,03,17,12.00
2016,06,21,03,18,12.00
2016,06,21,03,19,12.00
2016,06,21,03,20,12.00
2016,06,21,03,21,12.00
2016,06,21,03,22,12.00
2016,06,21,03,23,12.00
2016,06,21,03,24,12.00
2016,06,21,03,25,12.00
2016,06,21,03,26,12.00
2016,06,21,03,27,11.90
2016,06,21,03,28,11.90
2016,06,21,03,29,11.90
2016,06,21,03,30,11.90
2016,06,21,03,31,11.90
2016,06,21,03,32,11.90
2016,06,21,03,33,11.90
2016,06,21,03,34,11.90
2016,06,21,03,35,11.90
2016,06,21,03,36,11.90
2016,06,21,03,37,11.90
2016,06,21,03,38,11.90
2016,06,21,03,39,11.90
2016,06,21,03,40,11.90
2016,06,21,03,41,11.90
2016,06,21,03,42,11.90
2016,06,21,03,43,11.90
2016,06,21,03,44,11.90
2016,06,21,03,45,11.90
2016,06,21,03,46,11.90
2016,06,21,03,47,11.90
2016,06,21,03,48,11.90
2016,06,21,03,49,11.90
2016,06,21,03,50,11.90
2016,06,21,03,51,11.90
2016,06,21,03,52,11.90
2016,06,21,03,53,11.90
2016,06,21,03,54,12.00
2016,06,21,03,55,12.00
2016,06,21,03,56,11.90
2016,06,21,03,57,11.90
2016,06,21,03,58,12.00
2016,06,21,03,59,12.00
2016,06,21,04,00,11.90
2016,06,21,04,01,11.90
2016,06,21,04,02,11.90
2016,06,21,04,03,11.90
2016,06,21,04,04,11.90
2016,06,21,04,05,11.90
2016,06,21,04,06,11.90
2016,06,21,04,07,11.90
2016,06,21,04,08,11.90
2016,06,21,04,09,11.90
2016,06,21,04,10,11.90
2016,06,21,04,11,11.90
2016,06,21,04,12,11.90
2016,06,21,04,13,11.90
2016,06,21,04,14,11.90
2016,06,21,04,15,11.90
2016,06,21,04,16,11.90
2016,06,21,04,17,11.90
2016,06,21,04,18,11.90
2016,06,21,04,19,11.90
2016,06,21,04,20,11.90
2016,06,21,04,21,11.90
2016,06,21,04,22,11.90
2016,06,21,04,23,12.00
2016,06,21,04,24,12.00
2016,06,21,04,25,12.10
2016,06,21,04,26,12.10
2016,06,21,04,27,12.10
2016,06,21,04,28,12.20
2016,06,21,04,29,12.40
2016,06,21,04,30,12.50
2016,06,21,04,31,12.60
2016,06,21,04,32,12.60
2016,06,21,04,33,12.70
2016,06,21,04,34,12.70
2016,06,21,04,35,12.80
2016,06,21,04,36,12.90
2016,06,21,04,37,12.90
2016,06,21,04,38,13.00
2016,06,21,04,39,13.00
2016,06,21,04,40,13.10
2016,06,21,04,41,13.20
2016,06,21,04,42,13.20
2016,06,21,04,43,13.20
2016,06,21,04,44,13.30
2016,06,21,04,45,13.30
2016,06,21,04,46,13.30
2016,06,21,04,47,13.40
2016,06,21,04,48,13.50
2016,06,21,04,49,13.60
2016,06,21,04,50,13.70
2016,06,21,04,51,13.80
2016,06,21,04,52,13.80
2016,06,21,04,53,13.90
2016,06,21,04,54,13.90
2016,06,21,04,55,14.00
2016,06,21,04,56,14.10
2016,06,21,04,57,14.20
2016,06,21,04,58,14.20
2016,06,21,04,59,14.20
2016,06,21,05,00,14.30
2016,06,21,05,01,14.30
2016,06,21,05,02,14.40
2016,06,21,05,03,14.40
2016,06,21,05,04,14.40
2016,06,21,05,05,14.50
2016,06,21,05,06,14.50
2016,06,21,05,07,14.50
2016,06,21,05,08,14.50
2016,06,21,05,09,14.50
2016,06,21,05,10,14.50
2016,06,21,05,11,14.50
2016,06,21,05,12,14.50
2016,06,21,05,13,14.50
2016,06,21,05,14,14.40
2016,06,21,05,15,14.40
2016,06,21,05,16,14.40
2016,06,21,05,17,14.40
2016,06,21,05,18,14.40
2016,06,21,05,19,14.40
2016,06,21,05,20,14.40
2016,06,21,05,21,14.40
2016,06,21,05,22,14.40
2016,06,21,05,23,14.40
2016,06,21,05,24,14.40
2016,06,21,05,25,14.40
2016,06,21,05,26,14.40
2016,06,21,05,27,14.40
2016,06,21,05,28,14.40
2016,06,21,05,29,14.40
2016,06,21,05,30,14.40
2016,06,21,05,31,14.40
2016,06,21,05,32,14.40
2016,06,21,05,33,14.40
2016,06,21,05,34,14.40
2016,06,21,05,35,14.40
2016,06,21,05,36,14.40
2016,06,21,05,37,14.40
2016,06,21,05,38,14.40
2016,06,21,05,39,14.40
2016,06,21,05,40,14.40
2016,06,21,05,41,14.40
2016,06,21,05,42,14.40
2016,06,21,05,43,14.30
2016,06,21,05,44,14.30
2016,06,21,05,45,14.30
2016,06,21,05,46,14.30
2016,06,21,05,47,14.30
2016,06,21,05,48,14.30
2016,06,21,05,49,14.30
2016,06,21,05,50,14.30
2016,06,21,05,51,14.40
2016,06,21,05,52,14.30
2016,06,21,05,53,14.30
2016,06,21,05,54,14.40
2016,06,21,05,55,14.40
2016,06,21,05,56,14.40
2016,06,21,05,57,14.40
2016,06,21,05,58,14.40
2016,06,21,05,59,14.50
2016,06,21,06,00,14.50
2016,06,21,06,01,14.50
2016,06,21,06,02,14.50
2016,06,21,06,03,14.50
2016,06,21,06,04,14.50
2016,06,21,06,05,14.50
2016,06,21,06,06,14.50
2016,06,21,06,07,14.50
2016,06,21,06,08,14.50
2016,06,21,06,09,14.50
2016,06,21,06,10,14.50
2016,06,21,06,11,14.50
2016,06,21,06,12,14.50
2016,06,21,06,13,14.50
2016,06,21,06,14,14.60
2016,06,21,06,15,14.60
2016,06,21,06,16,14.60
2016,06,21,06,17,14.60
2016,06,21,06,18,14.60
2016,06,21,06,19,14.70
2016,06,21,06,20,14.70
2016,06,21,06,21,14.70
2016,06,21,06,22,14.70
2016,06,21,06,23,14.70
2016,06,21,06,24,14.70
2016,06,21,06,25,14.70
2016,06,21,06,26,14.70
2016,06,21,06,27,14.70
2016,06,21,06,28,14.70
2016,06,21,06,29,14.70
2016,06,21,06,30,14.60
2016,06,21,06,31,14.60
2016,06,21,06,32,14.60
2016,06,21,06,33,14.60
2016,06,21,06,34,14.60
2016,06,21,06,35,14.60
2016,06,21,06,36,14.60
2016,06,21,06,37,14.70
2016,06,21,06,38,14.70
2016,06,21,06,39,14.70
2016,06,21,06,40,14.80
2016,06,21,06,41,14.80
2016,06,21,06,42,14.80
2016,06,21,06,43,14.90
2016,06,21,06,44,14.90
2016,06,21,06,45,15.00
2016,06,21,06,46,15.00
2016,06,21,06,47,15.10
2016,06,21,06,48,15.10
2016,06,21,06,49,15.20
2016,06,21,06,50,15.20
2016,06,21,06,51,15.20
2016,06,21,06,52,15.30
2016,06,21,06,53,15.30
2016,06,21,06,54,15.30
2016,06,21,06,55,15.30
2016,06,21,06,56,15.40
2016,06,21,06,57,15.40
2016,06,21,06,58,15.40
2016,06,21,06,59,15.40
2016,06,21,07,00,15.50
2016,06,21,07,01,15.50
2016,06,21,07,02,15.50
2016,06,21,07,03,15.50
2016,06,21,07,04,15.60
2016,06,21,07,05,15.60
2016,06,21,07,06,15.60
2016,06,21,07,07,15.60
2016,06,21,07,08,15.60
2016,06,21,07,09,15.60
2016,06,21,07,10,15.70
2016,06,21,07,11,15.70
2016,06,21,07,12,15.70
2016,06,21,07,13,15.70
2016,06,21,07,14,15.70
2016,06,21,07,15,15.70
2016,06,21,07,16,15.70
2016,06,21,07,17,15.80
2016,06,21,07,18,15.80
2016,06,21,07,19,15.80
2016,06,21,07,20,15.80
2016,06,21,07,21,15.80
2016,06,21,07,22,15.80
2016,06,21,07,23,15.80
2016,06,21,07,24,15.80
2016,06,21,07,25,15.80
2016,06,21,07,26,15.80
2016,06,21,07,27,15.80
2016,06,21,07,28,15.80
2016,06,21,07,29,15.80
2016,06,21,07,30,15.80
2016,06,21,07,31,15.80
2016,06,21,07,32,15.80
2016,06,21,07,33,15.80
2016,06,21,07,34,15.90
2016,06,21,07,35,15.80
2016,06,21,07,36,15.80
2016,06,21,07,37,15.80
2016,06,21,07,38,15.80
2016,06,21,07,39,15.80
2016,06,21,07,40,15.80
2016,06,21,07,41,15.80
2016,06,21,07,42,15.80
2016,06,21,07,43,15.80
2016,06,21,07,44,15.80
2016,06,21,07,45,15.80
2016,06,21,07,46,15.80
2016,06,21,07,47,15.80
2016,06,21,07,48,15.80
2016,06,21,07,49,15.90
2016,06,21,07,50,15.90
2016,06,21,07,51,16.00
2016,06,21,07,52,16.00
2016,06,21,07,53,16.00
2016,06,21,07,54,16.10
2016,06,21,07,55,16.10
2016,06,21,07,56,16.10
2016,06,21,07,57,16.20
2016,06,21,07,58,16.20
2016,06,21,07,59,16.20
2016,06,21,08,00,16.10
2016,06,21,08,01,16.10
2016,06,21,08,02,16.10
2016,06,21,08,03,16.10
2016,06,21,08,04,16.10
2016,06,21,08,05,16.10
2016,06,21,08,06,16.10
2016,06,21,08,07,16.10
2016,06,21,08,08,16.10
2016,06,21,08,09,16.10
2016,06,21,08,10,16.10
2016,06,21,08,11,16.10
2016,06,21,08,12,16.10
2016,06,21,08,13,16.10
2016,06,21,08,14,16.10
2016,06,21,08,15,16.10
2016,06,21,08,16,16.10
2016,06,21,08,17,16.10
2016,06,21,08,18,16.20
2016,06,21,08,19,16.20
2016,06,21,08,20,16.20
2016,06,21,08,21,16.30
2016,06,21,08,22,16.30
2016,06,21,08,23,16.20
2016,06,21,08,24,16.20
2016,06,21,08,25,16.20
2016,06,21,08,26,16.20
2016,06,21,08,27,16.20
2016,06,21,08,28,16.20
2016,06,21,08,29,16.20
2016,06,21,08,30,16.20
2016,06,21,08,31,16.20
2016,06,21,08,32,16.20
2016,06,21,08,33,16.20
2016,06,21,08,34,16.20
2016,06,21,08,35,16.30
2016,06,21,08,36,16.30
2016,06,21,08,37,16.30
2016,06,21,08,38,16.40
2016,06,21,08,39,16.40
2016,06,21,08,40,16.50
2016,06,21,08,41,16.50
2016,06,21,08,42,16.50
2016,06,21,08,43,16.50
2016,06,21,08,44,16.50
2016,06,21,08,45,16.60
2016,06,21,08,46,16.60
2016,06,21,08,47,16.60
2016,06,21,08,48,16.70
2016,06,21,08,49,16.70
2016,06,21,08,50,16.70
2016,06,21,08,51,16.70
2016,06,21,08,52,16.70
2016,06,21,08,53,16.60
2016,06,21,08,54,16.60
2016,06,21,08,55,16.60
2016,06,21,08,56,16.70
2016,06,21,08,57,16.70
2016,06,21,08,58,16.70
2016,06,21,08,59,16.80
2016,06,21,09,00,16.80
2016,06,21,09,01,16.90
2016,06,21,09,02,17.00
2016,06,21,09,03,17.00
2016,06,21,09,04,17.00
2016,06,21,09,05,17.10
2016,06,21,09,06,17.10
2016,06,21,09,07,17.10
2016,06,21,09,08,17.20
2016,06,21,09,09,17.20
2016,06,21,09,10,17.20
2016,06,21,09,11,17.20
2016,06,21,09,12,17.20
2016,06,21,09,13,17.30
2016,06,21,09,14,17.30
2016,06,21,09,15,17.30
2016,06,21,09,16,17.30
2016,06,21,09,17,17.30
2016,06,21,09,18,17.30
2016,06,21,09,19,17.30
2016,06,21,09,20,17.20
2016,06,21,09,21,17.20
2016,06,21,09,22,17.10
2016,06,21,09,23,17.10
2016,06,21,09,24,17.10
2016,06,21,09,25,17.10
2016,06,21,09,26,17.10
2016,06,21,09,27,17.20
2016,06,21,09,28,17.20
2016,06,21,09,29,17.20
2016,06,21,09,30,17.20
2016,06,21,09,31,17.20
2016,06,21,09,32,17.20
2016,06,21,09,33,17.20
2016,06,21,09,34,17.20
2016,06,21,09,35,17.30
2016,06,21,09,36,17.30
2016,06,21,09,37,17.30
2016,06,21,09,38,17.30
2016,06,21,09,39,17.40
2016,06,21,09,40,17.40
2016,06,21,09,41,17.40
2016,06,21,09,42,17.40
2016,06,21,09,43,17.40
2016,06,21,09,44,17.40
2016,06,21,09,45,17.40
2016,06,21,09,46,17.40
2016,06,21,09,47,17.40
2016,06,21,09,48,17.40
2016,06,21,09,49,17.40
2016,06,21,09,50,17.40
2016,06,21,09,51,17.50
2016,06,21,09,52,17.50
2016,06,21,09,53,17.50
2016,06,21,09,54,17.50
2016,06,21,09,55,17.40
2016,06,21,09,56,17.40
2016,06,21,09,57,17.30
2016,06,21,09,58,17.30
2016,06,21,09,59,17.30
2016,06,21,10,00,17.20
2016,06,21,10,01,17.20
2016,06,21,10,02,17.20
2016,06,21,10,03,17.20
2016,06,21,10,04,17.30
2016,06,21,10,05,17.30
2016,06,21,10,06,17.30
2016,06,21,10,07,17.40
2016,06,21,10,08,17.50
2016,06,21,10,09,17.60
2016,06,21,10,10,17.70
2016,06,21,10,11,17.80
2016,06,21,10,12,17.80
2016,06,21,10,13,17.90
2016,06,21,10,14,17.90
2016,06,21,10,15,18.00
2016,06,21,10,16,18.00
2016,06,21,10,17,18.10
2016,06,21,10,18,18.20
2016,06,21,10,19,18.20
2016,06,21,10,20,18.20
2016,06,21,10,21,18.30
2016,06,21,10,22,18.30
2016,06,21,10,23,18.30
2016,06,21,10,24,18.20
2016,06,21,10,25,18.20
2016,06,21,10,26,18.10
2016,06,21,10,27,18.10
2016,06,21,10,28,18.10
2016,06,21,10,29,18.00
2016,06,21,10,30,17.90
2016,06,21,10,31,17.90
2016,06,21,10,32,17.90
2016,06,21,10,33,17.90
2016,06,21,10,34,18.00
2016,06,21,10,35,18.10
2016,06,21,10,36,18.20
2016,06,21,10,37,18.30
2016,06,21,10,38,18.40
2016,06,21,10,39,18.40
2016,06,21,10,40,18.40
2016,06,21,10,41,18.30
2016,06,21,10,42,18.30
2016,06,21,10,43,18.40
2016,06,21,10,44,18.40
2016,06,21,10,45,18.40
2016,06,21,10,46,18.50
2016,06,21,10,47,18.60
2016,06,21,10,48,18.60
2016,06,21,10,49,18.60
2016,06,21,10,50,18.60
2016,06,21,10,51,18.60
2016,06,21,10,52,18.60
2016,06,21,10,53,18.70
2016,06,21,10,54,18.60
2016,06,21,10,55,18.60
2016,06,21,10,56,18.60
2016,06,21,10,57,18.50
2016,06,21,10,58,18.50
2016,06,21,10,59,18.40
2016,06,21,11,00,18.40
2016,06,21,11,01,18.40
2016,06,21,11,02,18.30
2016,06,21,11,03,18.30
2016,06,21,11,04,18.30
2016,06,21,11,05,18.30
2016,06,21,11,06,18.30
2016,06,21,11,07,18.30
2016,06,21,11,08,18.30
2016,06,21,11,09,18.30
2016,06,21,11,10,18.30
2016,06,21,11,11,18.30
2016,06,21,11,12,18.30
2016,06,21,11,13,18.30
2016,06,21,11,14,18.30
2016,06,21,11,15,18.30
2016,06,21,11,16,18.30
2016,06,21,11,17,18.30
2016,06,21,11,18,18.30
2016,06,21,11,19,18.30
2016,06,21,11,20,18.30
2016,06,21,11,21,18.30
2016,06,21,11,22,18.30
2016,06,21,11,23,18.30
2016,06,21,11,24,18.20
2016,06,21,11,25,18.20
2016,06,21,11,26,18.20
2016,06,21,11,27,18.20
2016,06,21,11,28,18.20
2016,06,21,11,29,18.20
2016,06,21,11,30,18.10
2016,06,21,11,31,18.10
2016,06,21,11,32,18.10
2016,06,21,11,33,18.00
2016,06,21,11,34,18.00
2016,06,21,11,35,17.90
2016,06,21,11,36,17.90
2016,06,21,11,37,17.90
2016,06,21,11,38,17.90
2016,06,21,11,39,17.90
2016,06,21,11,40,17.90
2016,06,21,11,41,18.00
2016,06,21,11,42,18.00
2016,06,21,11,43,18.00
2016,06,21,11,44,18.00
2016,06,21,11,45,18.10
2016,06,21,11,46,18.20
2016,06,21,11,47,18.30
2016,06,21,11,48,18.30
2016,06,21,11,49,18.40
2016,06,21,11,50,18.40
2016,06,21,11,51,18.50
2016,06,21,11,52,18.50
2016,06,21,11,53,18.40
2016,06,21,11,54,18.40
2016,06,21,11,55,18.40
2016,06,21,11,56,18.40
2016,06,21,11,57,18.40
2016,06,21,11,58,18.40
2016,06,21,11,59,18.30
2016,06,21,12,00,18.30
2016,06,21,12,01,18.20
2016,06,21,12,02,18.20
2016,06,21,12,03,18.20
2016,06,21,12,04,18.20
2016,06,21,12,05,18.20
2016,06,21,12,06,18.20
2016,06,21,12,07,18.20
2016,06,21,12,08,18.20
2016,06,21,12,09,18.20
2016,06,21,12,10,18.20
2016,06,21,12,11,18.20
2016,06,21,12,12,18.20
2016,06,21,12,13,18.20
2016,06,21,12,14,18.20
2016,06,21,12,15,18.20
2016,06,21,12,16,18.20
2016,06,21,12,17,18.10
2016,06,21,12,18,18.10
2016,06,21,12,19,18.10
2016,06,21,12,20,18.00
2016,06,21,12,21,17.90
2016,06,21,12,22,17.80
2016,06,21,12,23,17.80
2016,06,21,12,24,17.70
2016,06,21,12,25,17.70
2016,06,21,12,26,17.70
2016,06,21,12,27,17.60
2016,06,21,12,28,17.60
2016,06,21,12,29,17.60
2016,06,21,12,30,17.50
2016,06,21,12,31,17.50
2016,06,21,12,32,17.50
2016,06,21,12,33,17.60
2016,06,21,12,34,17.60
2016,06,21,12,35,17.60
2016,06,21,12,36,17.60
2016,06,21,12,37,17.60
2016,06,21,12,38,17.60
2016,06,21,12,39,17.60
2016,06,21,12,40,17.60
2016,06,21,12,41,17.70
2016,06,21,12,42,17.70
2016,06,21,12,43,17.70
2016,06,21,12,44,17.70
2016,06,21,12,45,17.70
2016,06,21,12,46,17.70
2016,06,21,12,47,17.70
2016,06,21,12,48,17.70
2016,06,21,12,49,17.70
2016,06,21,12,50,17.80
2016,06,21,12,51,17.70
2016,06,21,12,52,17.70
2016,06,21,12,53,17.70
2016,06,21,12,54,17.70
2016,06,21,12,55,17.70
2016,06,21,12,56,17.70
2016,06,21,12,57,17.70
2016,06,21,12,58,17.70
2016,06,21,12,59,17.70
2016,06,21,13,00,17.70
2016,06,21,13,01,17.70
2016,06,21,13,02,17.80
2016,06,21,13,03,17.80
2016,06,21,13,04,17.80
2016,06,21,13,05,17.80
2016,06,21,13,06,17.90
2016,06,21,13,07,17.90
2016,06,21,13,08,17.90
2016,06,21,13,09,18.00
2016,06,21,13,10,18.00
2016,06,21,13,11,18.00
2016,06,21,13,12,18.10
2016,06,21,13,13,18.10
2016,06,21,13,14,18.10
2016,06,21,13,15,18.10
2016,06,21,13,16,18.10
2016,06,21,13,17,18.10
2016,06,21,13,18,18.10
2016,06,21,13,19,18.10
2016,06,21,13,20,18.10
2016,06,21,13,21,18.10
2016,06,21,13,22,18.10
2016,06,21,13,23,18.10
2016,06,21,13,24,18.10
2016,06,21,13,25,18.10
2016,06,21,13,26,18.10
2016,06,21,13,27,18.10
2016,06,21,13,28,18.10
2016,06,21,13,29,18.00
2016,06,21,13,30,18.00
2016,06,21,13,31,18.00
2016,06,21,13,32,17.90
2016,06,21,13,33,17.90
2016,06,21,13,34,17.90
2016,06,21,13,35,17.80
2016,06,21,13,36,17.80
2016,06,21,13,37,17.80
2016,06,21,13,38,17.80
2016,06,21,13,39,17.80
2016,06,21,13,40,17.70
2016,06,21,13,41,17.70
2016,06,21,13,42,17.70
2016,06,21,13,43,17.70
2016,06,21,13,44,17.70
2016,06,21,13,45,17.70
2016,06,21,13,46,17.60
2016,06,21,13,47,17.60
2016,06,21,13,48,17.60
2016,06,21,13,49,17.60
2016,06,21,13,50,17.60
2016,06,21,13,51,17.50
2016,06,21,13,52,17.50
2016,06,21,13,53,17.50
2016,06,21,13,54,17.50
2016,06,21,13,55,17.50
2016,06,21,13,56,17.50
2016,06,21,13,57,17.40
2016,06,21,13,58,17.40
2016,06,21,13,59,17.40
2016,06,21,14,00,17.40
2016,06,21,14,01,17.30
2016,06,21,14,02,17.30
2016,06,21,14,03,17.40
2016,06,21,14,04,17.40
2016,06,21,14,05,17.40
2016,06,21,14,06,17.40
2016,06,21,14,07,17.40
2016,06,21,14,08,17.40
2016,06,21,14,09,17.50
2016,06,21,14,10,17.50
2016,06,21,14,11,17.60
2016,06,21,14,12,17.60
2016,06,21,14,13,17.60
2016,06,21,14,14,17.70
2016,06,21,14,15,17.70
2016,06,21,14,16,17.80
2016,06,21,14,17,17.90
2016,06,21,14,18,18.00
2016,06,21,14,19,18.00
2016,06,21,14,20,18.10
2016,06,21,14,21,18.10
2016,06,21,14,22,18.10
2016,06,21,14,23,18.10
2016,06,21,14,24,18.10
2016,06,21,14,25,18.10
2016,06,21,14,26,18.20
2016,06,21,14,27,18.20
2016,06,21,14,28,18.20
2016,06,21,14,29,18.20
2016,06,21,14,30,18.30
2016,06,21,14,31,18.30
2016,06,21,14,32,18.30
2016,06,21,14,33,18.30
2016,06,21,14,34,18.40
2016,06,21,14,35,18.40
2016,06,21,14,36,18.40
2016,06,21,14,37,18.40
2016,06,21,14,38,18.40
2016,06,21,14,39,18.50
2016,06,21,14,40,18.50
2016,06,21,14,41,18.60
2016,06,21,14,42,18.50
2016,06,21,14,43,18.50
2016,06,21,14,44,18.50
2016,06,21,14,45,18.40
2016,06,21,14,46,18.40
2016,06,21,14,47,18.40
2016,06,21,14,48,18.40
2016,06,21,14,49,18.40
2016,06,21,14,50,18.40
2016,06,21,14,51,18.50
2016,06,21,14,52,18.50
2016,06,21,14,53,18.50
2016,06,21,14,54,18.50
2016,06,21,14,55,18.50
2016,06,21,14,56,18.50
2016,06,21,14,57,18.50
2016,06,21,14,58,18.60
2016,06,21,14,59,18.60
2016,06,21,15,00,18.70
2016,06,21,15,01,18.70
2016,06,21,15,02,18.80
2016,06,21,15,03,18.90
2016,06,21,15,04,18.90
2016,06,21,15,05,19.00
2016,06,21,15,06,19.00
2016,06,21,15,07,19.10
2016,06,21,15,08,19.20
2016,06,21,15,09,19.20
2016,06,21,15,10,19.20
2016,06,21,15,11,19.20
2016,06,21,15,12,19.20
2016,06,21,15,13,19.20
2016,06,21,15,14,19.20
2016,06,21,15,15,19.30
2016,06,21,15,16,19.30
2016,06,21,15,17,19.30
2016,06,21,15,18,19.20
2016,06,21,15,19,19.20
2016,06,21,15,20,19.10
2016,06,21,15,21,19.10
2016,06,21,15,22,19.10
2016,06,21,15,23,19.10
2016,06,21,15,24,19.00
2016,06,21,15,25,19.00
2016,06,21,15,26,19.00
2016,06,21,15,27,19.00
2016,06,21,15,28,19.00
2016,06,21,15,29,19.00
2016,06,21,15,30,19.00
2016,06,21,15,31,19.10
2016,06,21,15,32,19.10
2016,06,21,15,33,19.10
2016,06,21,15,34,19.10
2016,06,21,15,35,19.10
2016,06,21,15,36,19.10
2016,06,21,15,37,19.10
2016,06,21,15,38,19.10
2016,06,21,15,39,19.10
2016,06,21,15,40,19.10
2016,06,21,15,41,19.10
2016,06,21,15,42,19.10
2016,06,21,15,43,19.10
2016,06,21,15,44,19.10
2016,06,21,15,45,19.10
2016,06,21,15,46,19.10
2016,06,21,15,47,19.10
2016,06,21,15,48,19.10
2016,06,21,15,49,19.00
2016,06,21,15,50,19.00
2016,06,21,15,51,19.00
2016,06,21,15,52,19.00
2016,06,21,15,53,19.00
2016,06,21,15,54,19.00
2016,06,21,15,55,19.00
2016,06,21,15,56,19.00
2016,06,21,15,57,19.00
2016,06,21,15,58,19.00
2016,06,21,15,59,18.90
2016,06,21,16,00,18.90
2016,06,21,16,01,18.90
2016,06,21,16,02,18.90
2016,06,21,16,03,18.90
2016,06,21,16,04,18.90
2016,06,21,16,05,18.90
2016,06,21,16,06,18.90
2016,06,21,16,07,18.90
2016,06,21,16,08,18.90
2016,06,21,16,09,18.90
2016,06,21,16,10,18.80
2016,06,21,16,11,18.80
2016,06,21,16,12,18.80
2016,06,21,16,13,18.80
2016,06,21,16,14,18.70
2016,06,21,16,15,18.70
2016,06,21,16,16,18.70
2016,06,21,16,17,18.70
2016,06,21,16,18,18.70
2016,06,21,16,19,18.70
2016,06,21,16,20,18.60
2016,06,21,16,21,18.60
2016,06,21,16,22,18.60
2016,06,21,16,23,18.60
2016,06,21,16,24,18.60
2016,06,21,16,25,18.50
2016,06,21,16,26,18.50
2016,06,21,16,27,18.40
2016,06,21,16,28,18.40
2016,06,21,16,29,18.40
2016,06,21,16,30,18.40
2016,06,21,16,31,18.40
2016,06,21,16,32,18.40
2016,06,21,16,33,18.40
2016,06,21,16,34,18.40
2016,06,21,16,35,18.30
2016,06,21,16,36,18.30
2016,06,21,16,37,18.30
2016,06,21,16,38,18.30
2016,06,21,16,39,18.30
2016,06,21,16,40,18.30
2016,06,21,16,41,18.40
2016,06,21,16,42,18.40
2016,06,21,16,43,18.40
2016,06,21,16,44,18.40
2016,06,21,16,45,18.40
2016,06,21,16,46,18.40
2016,06,21,16,47,18.40
2016,06,21,16,48,18.40
2016,06,21,16,49,18.40
2016,06,21,16,50,18.40
2016,06,21,16,51,18.40
2016,06,21,16,52,18.40
2016,06,21,16,53,18.40
2016,06,21,16,54,18.40
2016,06,21,16,55,18.40
2016,06,21,16,56,18.40
2016,06,21,16,57,18.40
2016,06,21,16,58,18.40
2016,06,21,16,59,18.40
2016,06,21,17,00,18.40
2016,06,21,17,01,18.50
2016,06,21,17,02,18.50
2016,06,21,17,03,18.60
2016,06,21,17,04,18.60
2016,06,21,17,05,18.60
2016,06,21,17,06,18.60
2016,06,21,17,07,18.60
2016,06,21,17,08,18.60
2016,06,21,17,09,18.70
2016,06,21,17,10,18.70
2016,06,21,17,11,18.70
2016,06,21,17,12,18.70
2016,06,21,17,13,18.70
2016,06,21,17,14,18.60
2016,06,21,17,15,18.60
2016,06,21,17,16,18.60
2016,06,21,17,17,18.70
2016,06,21,17,18,18.70
2016,06,21,17,19,18.60